Regional Weather Roundup
Issued by NWS

Home | Current Version | Previous Version | Text Only | Print | Product List | Glossary On
Versions: 1 2 3 4 5 6 7 8 9 10 11 12 13 14 15 16 17 18 19 20 21 22 23 24 25 26 27 28 29 30 31 32 33 34 35 36 37 38 39 40 41 42 43 44 45 46 47 48 49
000
ASUS42 KTBW 102010
RWRFL
FLORIDA REGIONAL WEATHER ROUNDUP
NATIONAL WEATHER SERVICE TAMPA BAY RUSKIN FL
400 PM EDT THU JUL 10 2014

NOTE: "FAIR" INDICATES FEW OR NO CLOUDS BELOW 12,000 FEET WITH NO
SIGNIFICANT WEATHER AND/OR OBSTRUCTIONS TO VISIBILITY.


FLZ001>010-012>015-112-114-115-102100-
PANHANDLE FLORIDA

CITY           SKY/WX    TMP DP  RH WIND       PRES   REMARKS
PENSACOLA      LGT RAIN  76  68  76 NW16G24   30.10R
PENSACOLA NAS  CLOUDY    77  69  76 NW18G29   30.10R
MILTON NAS     TSTM      78  69  73 W17G28    30.07R
CRESTVIEW      MOSUNNY   91  69  48 CALM      30.04F HX  96
DUKE FIELD     PTSUNNY   87  75  67 S18       30.04F THUNDER HX  95
VALPARAISO     PTSUNNY   87  74  63 SW13G22   30.05S THUNDER HX  95
MARY ESTHER    MOSUNNY   88  70  55 SW13G18   30.04F
TRI COUNTY     MOCLDY    82  72  71 S15G24    30.06S THUNDER
PANAMA CITY    TSTM      80  76  87 E5        30.07R
TYNDALL AFB    PTSUNNY   84  75  76 SW15      30.09F
APALACHICOLA   CLOUDY    84  74  71 S9        30.09F

STATION/POSITION SKY/WX   TEMP    WIND        PRES    WAVE   SWELL
                          AIR SEA DIR/SP/G            HT/PER HT/PER
                          (F)     (DEG/KT/KT) (MB)    (FT/S) (FT/S)
30.1N   87.6W              83 85  250/ 12/ 14 1018.7R   1/ 4
29.2N   88.2W              79 87  360/ 12/ 16 1019.6
28.8N   86.0W              80 85  310/  2/  2 1020.0F   1/ 4
PANAMA CITY BEAC           83 83  200/ 11/ 13 1018.5F
CAPE SAN BLAS    NOT AVBL
TOWER C                    78     220/ 10/ 10 1019.0F
28.5N   84.5W              83 86  270/  2/  4 1018.9F   1/ 8

$$
FLZ011-016>038-118-127-128-134-139-239-102100-
NORTH FLORIDA

CITY           SKY/WX    TMP DP  RH WIND       PRES   REMARKS
MARIANNA       PTSUNNY   84  72  67 S21G26    30.05F
TALLAHASSEE    LGT RAIN  77  72  84 SW6       30.09F
PERRY          CLOUDY   N/A N/A N/A N3        30.11R
CROSS CITY       N/A     82  73  74 S3        30.09F
GAINESVILLE    CLOUDY    79  70  74 N8        30.10F
MAYPORT NAS    LGT RAIN  76  71  85 S10       30.09F
JACKSONVILLE   TSTM      76  72  87 CALM      30.08F
JAX NAS        LGT RAIN  81  72  74 SE8       30.09F
JAX CRAIG      LGT RAIN  76  73  91 S5        30.10F
JAX CECIL      SUNNY     73  72  94 CALM      30.09F
FERNANDINA BEA MOCLDY    77  68  73 SW12      30.08R THUNDER
ST AUGUSTINE   LGT RAIN  75  70  84 SW7       30.10F

STATION/POSITION SKY/WX   TEMP    WIND        PRES    WAVE   SWELL
                          AIR SEA DIR/SP/G            HT/PER HT/PER
                          (F)     (DEG/KT/KT) (MB)    (FT/S) (FT/S)
SHELL POINT                74      20/  1/  2   N/A
KEATON BEACH               81     200/  5/  6 1019.4S
CEDAR KEY                  82     100/  1/  1 1019.5F
FERNANDINA                 78 85  220/ 20/ 27 1018.4R
30.7N   81.3W                 84                N/A     2/ 9
MAYPORT                    76 86  210/  7/ 11   N/A
31.4N   80.9W              83 85  180/ 16/ 17 1017.6F   2/ 9   2/ 9
ST AUGUSTINE               80     230/  5/  8 1019.8F

$$
FLZ040-043>046-052-053-057-058-063-144-102100-
INTERIOR CENTRAL FLORIDA

CITY           SKY/WX    TMP DP  RH WIND       PRES   REMARKS
OCALA          MOSUNNY   88  70  55 SE5       30.09F
LEESBURG       CLOUDY    87  74  64 NW15      30.08F HX  95
SANFORD        PTSUNNY   82  71  69 NW17G28   30.09R THUNDER
ORLANDO EXEC   CLOUDY    88  70  55 E7        30.07S
ORLANDO INTL   PTSUNNY   90  71  53 SE9       30.07S THUNDER HX  96
KISSIMMEE      MOSUNNY   90  72  55 SE8       30.07F HX  96
WINTER HAVEN   PTSUNNY   89  71  55 SE12      30.08F HX  95
LAKELAND       CLOUDY   N/A N/A N/A SE12      30.08S
BARTOW         PTSUNNY   84  72  65 SE8       30.09F
OKEECHOBEE     MOSUNNY   86  70  58 MISG      30.09F

$$
FLZ041-047-054-059-064-141-147-102100-
EAST CENTRAL FLORIDA

CITY           SKY/WX    TMP DP  RH WIND       PRES   REMARKS
ORMOND BEACH   MOSUNNY   77  73  88 NW6       30.11F
DAYTONA BEACH  CLOUDY    83  72  69 W3        30.10F
DELAND         CLOUDY    77  73  88 CALM      30.10F
NEW SMYRNA BEA MOSUNNY   88  72  58 SE12      30.10F
JFK SPACE CTR  MOSUNNY   88  77  70 SE13      30.09R HX 100
TITUSVILLE     MOSUNNY   88  75  66 E12       30.09S HX  97
CAPE CANAVERAL SUNNY     87  75  69 SE12      30.10R HX  96
PATRICK AFB    SUNNY     87  77  71 SE17      30.09S HX  98
MELBOURNE      MOSUNNY   86  73  65 SE16G24   30.09S
VERO BEACH     MOSUNNY   86  75  69 E9        30.10F HX  95
FT PIERCE      PTSUNNY   86  73  65 SE9       30.09F
STUART         PTSUNNY  N/A N/A N/A E14       30.11S

STATION/POSITION SKY/WX   TEMP    WIND        PRES    WAVE   SWELL
                          AIR SEA DIR/SP/G            HT/PER HT/PER
                          (F)     (DEG/KT/KT) (MB)    (FT/S) (FT/S)
28.5N   80.2W              81 84  130/ 14/ 16 1019.6F
28.9N   78.5W              81 84  180/  6/  8 1020.6R   3/ 9   2/ 9
TRIDENT PIER               86 86  110/  7/ 13 1018.8R
28.4N   80.5W                 85                N/A     2/ 8
27.6N   80.2W                 84                N/A     2/ 9

$$
FLZ050-056-061-142-242-148-248-149-249-151-251-155-255-
160-260-102100-
WEST CENTRAL FLORIDA

CITY           SKY/WX    TMP DP  RH WIND       PRES   REMARKS
CRYSTAL RIVER  CLOUDY    86  70  58 SE6       30.09R THUNDER
INVERNESS      FAIR      88  68  51 CALM      30.08F
BROOKSVILLE    PTSUNNY   85  74  69 N7        30.08F
ZEPHYRHILLS    CLOUDY    82  73  74 W12       30.08S
CLEARWATER     TSTM      80  72  76 W13G31    30.08S
TAMPA INTL     PTSUNNY   85  70  60 NE6       30.07F
TAMPA EXEC       N/A    N/A N/A N/A MISG        N/A
PLANT CITY     LGT RAIN  79  73  83 NE3       30.10F
MACDILL AFB    MOSUNNY   92  79  67 N8        30.07F HX 108
PETER O KNIGHT PTSUNNY   86  72  62 CALM      30.07F
ST PETERSBURG  HVY RAIN  86  75  69 CALM      30.05F HX  95
SARASOTA       MOSUNNY   92  72  51 W10       30.06F HX  99
VENICE         FAIR      86  73  66 W8        30.07F

STATION/POSITION SKY/WX   TEMP    WIND        PRES    WAVE   SWELL
                          AIR SEA DIR/SP/G            HT/PER HT/PER
                          (F)     (DEG/KT/KT) (MB)    (FT/S) (FT/S)
CEDAR KEY                  82     100/  1/  1 1019.5F
28.5N   84.5W              83 86  270/  2/  4 1018.9F   1/ 8
27.3N   84.3W                 90                N/A     1/ 8
CLEARWATER BEACH           84 88  280/  7/  8 1018.3F
MIDDLE TAMPA BAY           84     270/  6/  7 1018.6F
VENICE                     84 88  200/  6/  7 1017.6F

$$
FLZ066-069-070-075>078-162-262-165-265-102100-
SOUTHWEST FLORIDA AND KEYS

CITY           SKY/WX    TMP DP  RH WIND       PRES   REMARKS
PUNTA GORDA    CLOUDY    84  75  74 S5        30.09F
FT MYERS       LGT RAIN  79  74  84 CALM      30.08S
SOUTHWEST INTL PTSUNNY   83  71  67 NE7       30.09S
NAPLES         MOSUNNY   87  76  69 W9        30.08R HX  97
MARATHON       MOSUNNY   91  76  61 SE8       30.07F HX 103
KEY WEST NAS   PTSUNNY   88  75  65 SE9       30.07F HX  97
KEY WEST INTL  MOSUNNY   87  76  69 SE9       30.07F HX  97

STATION/POSITION SKY/WX   TEMP    WIND        PRES    WAVE   SWELL
                          AIR SEA DIR/SP/G            HT/PER HT/PER
                          (F)     (DEG/KT/KT) (MB)    (FT/S) (FT/S)
VENICE                     84 88  200/  6/  7 1017.6F
NAPLES                     87     280/  5/  7 1019.1R
DRY TORTUGAS               80     190/ 14/ 16 1018.9R
NW FL BAY                  87     150/  6/  8 1019.0F
SAND KEY                   83      40/  6/  9 1018.3F
SOMBRERO KEY               87     110/ 10/ 11 1018.8F
LONG KEY                   86 88  150/ 10/ 12 1019.4F
MOLASSES REEF              84 85  110/  8/  9 1018.5F

$$
FLZ067-068-071>074-168-172>174-102100-
SOUTHEAST FLORIDA

CITY           SKY/WX    TMP DP  RH WIND       PRES   REMARKS
W PALM BEACH   PTSUNNY   82  71  69 CALM      30.09F
FT LAUDER-EXEC TSTM      77  75  93 SW5       30.12R FOG
FT LAUDERDALE  TSTM      78  76  93 NW5       30.11R
POMPANO BEACH  TSTM      79  32  18 S12       30.12R
PEMBROKE PINES CLOUDY    78  74  87 NW6       30.13S
OPA LOCKA      LGT RAIN  77  72  84 CALM      30.11F
MIAMI          CLOUDY    79  73  82 W6        30.11R
WEST KENDALL   CLOUDY    81  73  76 NW6       30.11R THUNDER
HOMESTEAD      MOSUNNY   82  64  54 W6        30.09F

STATION/POSITION SKY/WX   TEMP    WIND        PRES    WAVE   SWELL
                          AIR SEA DIR/SP/G            HT/PER HT/PER
                          (F)     (DEG/KT/KT) (MB)    (FT/S) (FT/S)
PORT EVERGLADES            77      60/  4/  7 1019.8
VIRGINIA KEY               82 85  100/  6/  8   N/A
LAKE WORTH                 82 84              1018.7F
FOWEY ROCKS                84 85  130/ 10/ 10 1019.0F
SETTLEMENT POINT           80      90/  5/  6 1020.2F

$$



USA.gov is the U.S. government's official web portal to all federal, state and local government web resources and services.